GW3631 Weather Reports


Display with metric or nautical units.
time (UTC)temp
F
wind
direction
speed
MPH
gust
MPH
rain 1hr
in
rain 24hr
in
rain mn
in
humidity
%
barometer
mb
20260901084605 58 0 0.0 0.0 0.00 0.00 0.00 91 1013.0
20260901083103 59 0 0.0 0.0 0.00 0.00 0.00 91 1012.9
20260901081559 59 0 0.0 0.0 0.00 0.00 0.00 92 1012.9
20260901080107 59 0 0.0 0.0 0.00 0.00 0.00 91 1012.8
20260901074603 60 0 0.0 0.0 0.00 0.00 0.00 89 1012.9
20260901073104 61 0 0.0 0.0 0.00 0.00 0.00 88 1013.1
20260901071604 61 0 0.0 0.0 0.00 0.00 0.00 87 1013.2
20260901070112 61 0 0.0 0.0 0.00 0.00 0.00 88 1013.2
20260901064604 62 0 0.0 1.0 0.00 0.00 0.00 86 1013.3
20260901063101 63 0 0.0 0.0 0.00 0.00 0.00 85 1013.4
20260901061602 63 0 0.0 0.0 0.00 0.00 0.00 85 1013.3
20260901060105 63 0 0.0 0.0 0.00 0.00 0.00 85 1013.3
20260901054601 62 0 0.0 0.0 0.00 0.00 0.00 86 1013.3
20260901053110 63 0 0.0 1.0 0.00 0.00 0.00 85 1013.3
20260901051604 63 0 0.0 0.0 0.00 0.00 0.00 84 1013.2
20260901050104 63 0 0.0 0.0 0.00 0.00 0.00 84 1013.2
20260901044602 64 0 0.0 0.0 0.00 0.00 0.00 84 1013.3
20260901043107 64 0 0.0 0.0 0.00 0.00 0.00 83 1013.3
20260901041606 65 0 0.0 0.0 0.00 0.00 0.00 81 1013.1
20260901040106 65 0 0.0 0.0 0.00 0.00 0.00 79 1013.1
20260901034601 65 0 0.0 0.0 0.00 0.00 0.00 79 1013.0
20260901033120 66 0 0.0 0.0 0.00 0.00 0.00 80 1012.9
20260901031610 66 0 0.0 0.0 0.00 0.00 0.00 80 1013.0
20260901030108 66 0 0.0 0.0 0.00 0.00 0.00 79 1012.8
20260901024559 67 0 0.0 0.0 0.00 0.00 0.00 78 1012.6
20260901023107 68 0 0.0 0.0 0.00 0.00 0.00 79 1012.6
20260901021606 69 0 0.0 0.0 0.00 0.00 0.00 78 1012.5
20260901014603 70 0 0.0 0.0 0.00 0.00 0.00 75 1012.2
20260901013113 71 0 0.0 0.0 0.00 0.00 0.00 74 1012.0
20260901011621 74 0 0.0 0.0 0.00 0.00 0.00 73 1012.0
20260901010114 75 0 0.0 0.0 0.00 0.00 0.00 70 1012.0
20260901004604 77 0 0.0 0.0 0.00 0.00 0.00 67 1011.9
20260901003110 79 0 0.0 0.0 0.00 0.00 0.00 63 1011.9
20260901001604 80 0 0.0 0.0 0.00 0.00 0.00 58 1011.9
20260901000104 82 0 0.0 3.0 0.00 0.00 0.00 54 1011.9
20260831234604 83 253 1.0 2.0 0.00 0.00 0.00 52 1011.8
20260831233106 83 310 1.0 4.0 0.00 0.00 0.00 48 1011.9
20260831231611 83 261 1.0 3.0 0.00 0.00 0.00 48 1011.9
20260831230120 83 307 3.0 5.0 0.00 0.00 0.00 47 1011.9
20260831224608 84 277 4.0 9.0 0.00 0.00 0.00 48 1012.0
20260831223111 84 273 3.0 6.0 0.00 0.00 0.00 46 1011.7
20260831221608 84 299 3.0 6.0 0.00 0.00 0.00 50 1011.8
20260831220112 84 287 1.0 3.0 0.00 0.00 0.00 48 1011.8
20260831214613 84 298 2.0 3.0 0.00 0.00 0.00 45 1011.6
20260831213112 85 291 1.0 3.0 0.00 0.00 0.00 47 1011.7
20260831211605 84 0 1.0 3.0 0.00 0.00 0.00 46 1011.8
20260831204605 85 301 1.0 3.0 0.00 0.00 0.00 47 1011.7
20260831203108 85 23 0.0 2.0 0.00 0.00 0.00 50 1011.7
20260831201602 86 353 0.0 3.0 0.00 0.00 0.00 49 1011.9
20260831200110 85 293 0.0 3.0 0.00 0.00 0.00 51 1011.9
20260831194616 83 267 2.0 3.0 0.00 0.00 0.00 53 1011.8
20260831193059 83 270 0.0 3.0 0.00 0.00 0.00 53 1011.7
20260831191607 82 298 1.0 3.0 0.00 0.00 0.00 55 1011.5
20260831190115 83 271 0.0 2.0 0.00 0.00 0.00 55 1011.5
20260831184605 81 82 1.0 3.0 0.00 0.00 0.00 55 1011.6
20260831183115 80 98 1.0 4.0 0.00 0.00 0.00 56 1011.7
20260831181606 81 282 1.0 3.0 0.00 0.00 0.00 56 1011.9
20260831180119 79 302 2.0 3.0 0.00 0.00 0.00 59 1011.7
20260831174558 79 311 1.0 3.0 0.00 0.00 0.00 57 1011.9
20260831173101 80 264 1.0 3.0 0.00 0.00 0.00 59 1011.8
20260831171604 80 269 1.0 3.0 0.00 0.00 0.00 64 1011.8
20260831164601 76 269 2.0 4.0 0.00 0.00 0.00 72 1011.7
20260831163101 76 302 2.0 4.0 0.00 0.00 0.00 71 1011.7
20260831161604 75 289 1.0 3.0 0.00 0.00 0.00 73 1011.6
20260831160108 74 301 1.0 3.0 0.00 0.00 0.00 76 1011.6
20260831154633 74 283 3.0 4.0 0.00 0.00 0.00 79 1011.5
20260831153106 74 295 2.0 4.0 0.00 0.00 0.00 80 1011.4
20260831151605 73 278 1.0 3.0 0.00 0.00 0.00 82 1011.3
20260831150112 73 274 1.0 3.0 0.00 0.00 0.00 85 1011.1
20260831144608 73 305 2.0 4.0 0.00 0.00 0.00 84 1010.7
20260831143112 73 316 1.0 4.0 0.00 0.00 0.00 86 1010.6
20260831141602 71 297 1.0 4.0 0.00 0.00 0.00 90 1010.3
20260831140057 71 45 0.0 2.0 0.00 0.00 0.00 95 1010.2
20260831134606 71 0 0.0 0.0 0.00 0.00 0.00 97 1010.0
20260831133108 70 0 0.0 0.0 0.00 0.00 0.00 97 1010.1
20260831131606 69 0 0.0 0.0 0.00 0.00 0.00 96 1009.9
20260831130109 69 0 0.0 0.0 0.00 0.00 0.00 96 1009.6
20260831124601 69 0 0.0 2.0 0.00 0.00 0.00 97 1009.2
20260831123104 69 0 0.0 0.0 0.00 0.00 0.00 97 1008.9
20260831121605 68 0 0.0 0.0 0.00 0.00 0.00 96 1008.7
20260831120129 68 0 0.0 0.0 0.00 0.00 0.00 96 1008.2
20260831114609 68 0 0.0 0.0 0.00 0.00 0.00 96 1008.0
20260831113108 68 0 0.0 0.0 0.00 0.00 0.00 96 1008.0
20260831111615 68 0 0.0 0.0 0.00 0.00 0.00 96 1007.8
20260831110105 68 0 0.0 0.0 0.00 0.00 0.00 96 1007.6
20260831104605 68 0 0.0 0.0 0.00 0.00 0.00 96 1007.4
20260831103107 68 0 0.0 0.0 0.00 0.00 0.00 96 1007.2
20260831101600 68 0 0.0 0.0 0.00 0.00 0.00 96 1007.2
20260831100112 68 0 0.0 0.0 0.00 0.00 0.00 96 1007.1
20260831094605 68 0 0.0 0.0 0.00 0.00 0.00 95 1007.1
20260831093103 68 0 0.0 0.0 0.00 0.00 0.00 95 1007.0
20260831091602 68 0 0.0 0.0 0.00 0.00 0.00 95 1007.1
20260831090107 68 0 0.0 0.0 0.00 0.00 0.00 95 1007.1